Location: Caltech
(34.1382°N, 118.1253°W)
Time: 17:14:59
(UTC-07:00)

SL-08 R/B - Visible Passes

Search period start: 24 July 2016 00:00
Search period end: 03 August 2016 00:00
Orbit: 674 x 741 km, 98.2° (Epoch: 23 July)

Date Brightness Start Highest point End Pass type
(mag) Time Alt. Az. Time Alt. Az. Time Alt. Az.
24 Jul 5.6 01:51:33 18° ENE 01:51:33 18° ENE 01:54:24 10° NNE visible
24 Jul 4.7 03:30:33 27° NW 03:30:33 27° NW 03:33:04 10° NNW visible
25 Jul 4.4 02:36:29 41° NNE 02:36:29 41° NNE 02:39:48 10° N visible
26 Jul 5.8 01:42:26 15° ENE 01:42:26 15° ENE 01:44:41 10° NNE visible
26 Jul 4.6 03:21:27 30° NW 03:21:27 30° NW 03:24:03 10° NNW visible
27 Jul 4.8 02:27:23 34° NNE 02:27:23 34° NNE 02:30:30 10° N visible
27 Jul 5.5 04:06:22 11° WNW 04:06:22 11° WNW 04:06:49 10° WNW visible
28 Jul 6.0 01:33:19 12° ENE 01:33:19 12° ENE 01:34:40 10° NE visible
28 Jul 4.5 03:12:20 32° NW 03:12:20 32° NW 03:14:57 10° NNW visible
29 Jul 5.1 02:18:15 29° NE 02:18:15 29° NE 02:21:09 10° N visible
29 Jul 5.4 03:57:15 14° WNW 03:57:15 14° WNW 03:58:10 10° NW visible
30 Jul 4.6 03:03:12 34° NNW 03:03:12 34° NNW 03:05:49 10° NNW visible
31 Jul 5.4 02:09:09 24° NE 02:09:09 24° NE 02:11:44 10° NNE visible
31 Jul 5.3 03:48:09 16° NW 03:48:09 16° NW 03:49:22 10° NW visible
01 Aug 4.7 02:54:05 33° N 02:54:05 33° N 02:56:38 10° N visible
02 Aug 5.6 02:00:03 19° NE 02:00:03 19° NE 02:02:15 10° NNE visible
02 Aug 5.2 03:39:02 18° NW 03:39:02 18° NW 03:40:27 10° NW visible
